Location: Ferchesar
(52.6477°N, 12.4298°E)
Time: 21:01:46
(UTC+02:00)

Tiros 1 despin weight - Pass Details

Date: 13 March 2021
Orbit: 593 x 641 km, 48.2° (Epoch: 17 April)

Event Time Altitude Azimuth Distance (km) Brightness Sun altitude
Rises 21:28:06 0° 244° (WSW) 2,851 ? -28.7°
Reaches altitude 10° 21:30:27 10° 238° (WSW) 1,956 ? -29.0°
Enters shadow 21:30:48 12° 236° (WSW) 1,831 ? -29.0°
